Location: Newark
(7.1028°S, 35.3258°W)
Time: 00:38:38
(UTC+00:00)

deb Explorer IX - Pass Details

Date: 28 February 2020
Orbit: 547 x 1101 km, 38.8° (Epoch: 28 March)

Event Time Altitude Azimuth Distance (km) Brightness Sun altitude
Exits shadow 06:34:27 58° 347° (NNW) 1,143 ? -28.2°
Drops below altitude 10° 06:39:59 10° 37° (NE) 2,592 ? -26.8°
Sets 06:42:25 0° 41° (NE) 3,448 ? -26.2°
